Wind_Speed
13 14 15 17 18 18 17 17 16 14 13 13 11 12 12 13 14 14 13 13 12 10 8 6 6 3 4 2 3 1 5 8 8 8 6 3 8 7 3 5 6 5 6 9 8 14 11
14 15 15 17 18 20 20 19 16 14 12 12 12 12 11 12 12 13 12 11 10 7 5 5 4 1 5 2 4 5 6 8 9 9 8 11 8 7 10 9 3 7 7 7 8 11 15
15 15 16 17 19 19 19 19 19 15 12 12 12 12 11 12 12 11 10 9 7 5 5 2 3 1 4 8 3 4 9 9 8 14 12 12 12 16 7 7 7 14 7 9 6 9 7
16 17 17 18 18 20 18 19 20 15 11 10 12 12 11 12 11 10 8 6 4 4 3 1 1 1 5 1 4 9 6 4 2 6 6 4 7 6 8 9 9 7 5 6 8 8 6
17 17 18 19 18 19 18 19 22 15 12 11 10 12 11 11 10 9 6 4 3 2 2 2 1 3 4 1 4 6 5 7 5 5 4 5 3 1 6 2 4 7 3 5 6 19 5
19 18 18 19 18 17 18 20 21 14 12 11 12 10 11 10 9 7 5 7 2 1 1 2 4 5 2 2 4 8 5 8 6 8 5 0 2 4 4 6 0 2 4 6 7 8 24
21 19 18 19 18 16 19 21 20 12 12 11 10 10 12 9 8 7 6 4 5 1 5 3 2 5 6 5 3 7 4 5 7 6 2 5 7 3 4 5 6 7 9 13 7 6 17
22 20 19 19 18 16 18 22 19 11 13 10 9 10 9 8 7 5 6 3 3 4 5 4 2 1 3 6 3 8 7 3 1 4 5 6 6 6 9 8 9 8 9 6 12 17 17
26 23 20 18 18 17 19 22 16 12 11 9 9 10 8 8 6 5 9 4 4 3 3 5 6 3 4 4 4 10 11 4 4 9 9 7 3 12 7 9 11 5 7 5 4 10 12
27 25 21 18 17 17 18 21 14 12 9 9 8 8 6 5 3 5 7 6 7 3 4 2 3 1 1 0 0 12 13 4 4 6 8 8 7 8 7 5 5 3 0 4 4 4 3
27 26 23 19 17 17 18 19 14 12 9 8 7 6 6 5 5 9 8 6 3 2 3 4 1 1 2 2 1 8 10 12 4 3 6 2 5 7 7 5 4 3 4 4 4 4 5
26 21 23 21 18 18 17 18 14 12 9 8 6 5 5 8 7 10 7 3 3 6 4 1 4 2 5 10 5 5 6 10 8 11 11 5 8 5 2 4 3 5 5 6 5 4 4
23 25 24 23 20 19 18 18 14 11 8 7 6 5 7 10 8 8 7 7 5 4 3 3 3 4 5 3 5 5 5 8 4 3 2 4 4 1 4 6 7 7 5 3 5 5 2
20 30 29 23 21 19 17 18 13 11 8 6 6 5 10 12 8 8 8 5 4 4 1 3 5 5 4 2 2 6 4 5 5 4 4 3 2 3 5 4 2 3 4 4 3 3 2
21 28 28 24 20 18 16 16 12 10 8 4 4 3 9 12 10 9 8 4 6 1 6 5 4 3 2 2 5 5 4 2 2 4 4 4 0 1 8 8 4 4 5 2 5 4 4
23 20 21 21 20 17 15 15 12 10 7 5 4 3 5 8 12 12 3 3 2 3 6 4 4 5 5 4 4 4 2 4 4 4 2 5 4 1 3 7 11 6 3 3 4 3 3
21 20 23 21 20 17 14 13 12 10 8 8 4 3 6 12 17 3 4 4 3 4 7 4 3 1 3 3 3 3 2 3 5 6 8 2 3 3 6 6 3 5 3 5 4 3 4
18 20 25 25 21 18 14 13 12 12 10 9 3 0 11 15 3 2 3 5 4 2 4 4 3 3 3 5 4 4 3 3 6 5 3 3 4 5 4 3 3 4 4 3 4 2 3
18 29 22 28 24 19 15 12 14 14 14 9 3 4 8 8 3 1 2 4 6 4 4 3 4 4 5 3 5 3 4 2 4 2 1 2 3 4 5 4 4 5 3 4 4 3 0
18 28 26 28 27 19 16 13 17 16 17 10 3 2 4 7 1 7 5 3 3 6 5 5 3 5 5 5 6 4 2 3 1 3 2 3 5 3 4 5 2 4 6 2 4 4 1
18 25 29 27 25 20 16 16 19 17 17 12 4 5 7 4 2 6 4 4 4 1 0 4 6 6 3 4 3 4 2 0 1 2 2 4 5 15 13 14 14 10 7 11 7 5 6
19 27 30 27 26 22 18 17 20 19 19 16 3 3 6 6 14 8 4 2 5 4 4 4 7 9 11 5 1 4 6 4 2 7 4 3 5 11 6 11 14 8 13 13 12 10 6
22 27 28 30 29 24 19 19 23 19 20 10 2 5 4 2 4 5 3 6 7 7 16 16 18 11 11 7 23 23 22 16 7 3 4 3 5 4 4 8 6 8 6 6 5 6 3
24 30 33 35 31 25 20 21 23 22 24 9 3 3 5 2 4 3 5 10 5 4 8 6 11 7 9 18 21 19 18 19 25 17 10 4 3 2 5 4 4 4 3 3 2 3 5
26 33 36 36 30 26 22 24 25 25 26 14 4 4 4 4 17 12 19 18 23 23 11 12 13 15 9 8 4 5 5 5 6 12 14 9 3 3 3 5 4 1 1 1 3 5 9
29 34 37 37 32 26 23 26 26 26 26 16 3 3 8 16 4 9 14 15 5 4 5 5 10 10 6 4 3 3 1 2 5 4 12 11 8 4 1 4 3 1 3 2 3 4 5
32 37 36 39 33 25 26 27 28 27 25 10 4 9 14 14 6 10 5 6 8 6 4 3 5 5 2 3 4 2 1 2 3 4 4 4 3 4 3 3 4 3 2 2 1 3 11
39 44 42 37 32 28 29 29 28 27 19 10 9 15 17 11 15 9 9 9 10 9 5 10 5 2 4 4 3 1 3 1 4 3 2 3 2 2 2 4 3 1 3 1 1 7 14
45 46 42 37 30 30 31 30 30 27 21 20 23 17 22 25 23 21 16 10 8 8 24 6 5 5 4 5 2 3 4 3 1 2 4 3 1 2 2 2 1 2 2 1 7 13 11
Wind_Direction
306 315 321 324 329 332 331 329 323 313 298 286 288 287 290 292 297 300 305 306 305 304 301 308 312 307 153 178 1 262 18 355 330 314 313 286 282 286 248 273 312 194 265 280 91 146 134
293 303 310 318 324 327 326 326 324 312 296 289 288 285 291 294 297 300 304 303 298 295 285 302 311 284 170 166 66 20 357 327 308 298 285 259 248 269 286 274 255 284 298 274 146 173 129
283 296 307 314 321 323 322 324 324 313 294 284 282 285 295 295 298 301 301 297 286 280 278 297 285 340 229 211 349 331 308 295 276 273 281 249 264 258 264 306 334 311 349 334 303 152 133
280 290 300 309 319 319 322 324 321 307 287 279 283 290 296 297 301 299 299 281 271 274 250 189 232 265 251 340 334 326 328 260 323 229 292 248 279 277 230 294 339 340 42 353 324 165 75
270 283 294 304 315 316 321 324 318 306 286 283 280 286 295 295 304 302 294 215 144 173 211 177 7 300 274 205 345 349 313 331 228 251 245 310 289 331 334 45 30 7 2 1 4 3 91
262 274 289 299 308 310 318 323 319 302 282 280 281 294 295 299 306 299 228 183 213 213 234 247 247 315 350 334 317 316 302 287 282 320 262 302 45 56 25 51 114 309 45 12 30 18 70
261 271 282 293 302 305 315 322 317 296 284 280 293 299 293 306 297 276 200 207 290 211 228 267 309 273 340 328 300 341 323 273 257 271 192 27 67 30 340 21 67 73 83 69 88 95 62
255 265 275 287 295 300 310 317 311 291 286 286 293 286 293 299 276 251 185 100 45 335 316 265 240 152 346 15 347 320 339 18 326 255 97 50 53 329 71 50 59 60 84 75 103 95 92
251 257 267 277 287 294 307 315 306 289 288 288 289 290 305 289 263 207 185 129 4 342 263 254 222 263 21 34 27 2 0 342 53 81 70 102 309 58 63 43 35 8 101 104 108 73 120
244 251 259 268 278 286 302 313 300 290 288 289 290 293 292 264 178 173 178 239 340 334 50 257 228 246 346 248 105 27 19 11 43 137 104 82 20 61 50 47 31 27 302 126 154 125 147
244 250 256 264 270 281 298 309 298 289 283 283 283 287 281 201 144 158 181 207 307 280 27 262 31 96 351 183 18 1 18 59 49 355 85 111 52 51 47 324 325 258 307 265 210 158 91
238 244 252 254 258 272 289 301 292 281 277 277 278 273 250 193 170 171 168 178 178 46 262 211 129 136 64 65 40 6 42 69 59 60 59 70 86 53 326 299 8 310 14 46 52 100 60
227 230 233 244 249 263 282 296 288 278 268 271 263 259 218 197 189 178 162 150 50 122 222 190 165 102 97 48 53 38 51 39 45 106 63 47 20 18 17 15 7 22 57 18 20 36 111
236 232 235 230 242 257 275 292 283 270 259 254 255 248 214 208 189 179 163 63 97 223 193 168 101 114 123 107 78 20 69 36 3 22 69 116 2 14 318 52 267 6 92 131 156 146 155
236 230 226 226 234 250 270 288 272 259 251 236 233 242 221 209 197 185 179 71 201 248 305 157 124 127 148 166 125 87 60 72 352 32 118 131 46 355 68 65 43 331 35 94 98 56 83
235 236 213 229 231 245 267 284 261 246 233 213 182 212 210 195 178 163 99 195 200 16 351 11 167 169 174 206 129 92 98 343 332 16 74 197 118 137 59 28 35 71 354 61 22 101 96
235 226 209 218 232 241 260 271 247 229 213 199 215 233 173 149 153 187 146 218 97 26 37 54 357 98 96 133 106 72 49 6 12 325 347 99 100 349 54 20 326 3 38 60 103 116 152
262 239 205 215 218 235 250 258 236 218 207 197 208 105 152 151 155 74 133 135 101 22 18 30 101 64 70 63 60 76 118 61 347 312 5 6 113 61 86 131 63 74 112 100 111 159 67
272 234 218 216 213 221 242 246 227 214 204 185 206 120 155 181 141 73 56 59 57 38 15 39 34 54 57 89 96 85 83 283 344 53 104 341 84 119 159 231 20 38 24 113 108 80 346
261 245 236 224 218 215 232 234 224 211 205 190 222 88 153 213 193 132 115 97 104 37 37 57 27 70 73 49 49 122 125 228 176 126 126 78 31 147 158 112 140 15 355 56 116 73 201
258 238 232 237 217 213 226 223 219 209 206 198 232 217 170 200 246 142 110 128 121 112 302 18 32 1 133 92 76 101 100 346 36 7 99 89 82 90 93 95 83 61 36 41 52 137 110
263 233 229 223 211 215 223 218 217 206 199 201 236 183 161 159 132 103 81 141 157 89 353 39 94 56 76 85 171 126 119 50 25 349 41 80 118 102 82 92 91 72 28 41 34 7 27
259 224 219 216 208 216 223 216 215 206 195 198 237 290 205 136 105 94 195 159 154 139 40 124 116 86 79 118 93 89 88 83 66 85 21 78 143 139 119 155 74 46 351 26 94 31 339
258 216 215 211 208 212 220 210 211 202 199 187 38 326 148 8 86 97 87 90 76 54 120 114 92 101 129 119 107 93 84 72 53 38 38 98 106 72 141 126 64 238 228 246 98 45 15
247 213 211 212 206 207 214 207 208 201 203 193 40 30 82 77 106 91 93 110 91 84 69 71 64 113 130 113 70 55 359 27 52 62 39 64 89 85 122 80 92 301 78 85 89 359 355
232 208 209 205 208 206 209 203 205 201 202 194 55 85 129 120 358 137 109 121 116 98 36 56 102 131 111 75 66 89 116 357 19 16 52 44 70 89 85 92 122 225 97 136 6 43 330
220 204 203 201 204 205 202 199 201 195 192 186 188 157 153 101 86 135 119 145 145 109 105 146 139 101 131 65 69 103 36 88 48 40 352 8 26 54 61 92 50 357 25 13 116 249 306
212 197 193 199 202 202 196 194 196 182 171 166 144 162 165 98 79 130 144 147 144 141 137 153 96 25 63 68 107 196 89 87 83 38 60 56 10 38 45 86 116 355 142 240 301 296 292
203 187 189 196 201 195 189 188 184 163 155 144 138 138 146 112 105 91 94 100 137 152 134 127 139 122 131 92 63 103 62 50 70 67 23 71 36 82 17 107 265 33 81 278 280 282 302
Height
1538 1537 1536 1536 1533 1531 1530 1528 1526 1526 1525 1523 1522 1522 1521 1520 1519 1518 1516 1515 1514 1512 1511 1510 1509 1508 1509 1510 1510 1509 1510 1508 1508 1508 1509 1509 1509 1509 1510 1505 1505 1505 1501 1500 1495 1495 1500
1535 1536 1535 1534 1532 1530 1528 1526 1524 1523 1522 1521 1520 1520 1519 1518 1516 1515 1514 1512 1511 1510 1509 1509 1509 1508 1509 1510 1508 1509 1508 1507 1507 1506 1506 1506 1506 1508 1507 1504 1505 1499 1499 1498 1498 1496 1502
1533 1534 1533 1532 1530 1529 1527 1524 1522 1521 1519 1519 1518 1518 1516 1516 1514 1513 1511 1510 1509 1509 1508 1508 1509 1508 1509 1507 1507 1507 1507 1506 1505 1504 1503 1503 1504 1507 1505 1504 1500 1498 1499 1494 1490 1496 1504
1531 1532 1531 1530 1528 1527 1525 1521 1520 1518 1517 1516 1516 1515 1514 1513 1511 1511 1509 1509 1508 1508 1508 1507 1508 1508 1506 1506 1505 1505 1504 1503 1502 1502 1502 1503 1503 1502 1503 1502 1501 1502 1502 1512 1497 1494 1503
1528 1528 1528 1527 1525 1526 1523 1519 1519 1515 1515 1514 1515 1514 1512 1511 1509 1508 1508 1508 1507 1508 1508 1507 1509 1509 1506 1504 1505 1503 1502 1502 1501 1501 1502 1502 1503 1502 1501 1505 1514 1515 1521 1515 1506 1500 1501
1526 1525 1525 1525 1524 1524 1520 1517 1515 1513 1513 1512 1513 1512 1510 1509 1507 1506 1507 1507 1508 1509 1508 1508 1508 1511 1506 1504 1503 1502 1502 1501 1500 1500 1501 1502 1503 1507 1508 1513 1530 1521 1522 1523 1525 1529 1520
1521 1522 1522 1523 1522 1520 1517 1515 1514 1512 1512 1511 1510 1509 1509 1506 1506 1506 1507 1509 1511 1510 1508 1507 1507 1506 1505 1503 1502 1502 1500 1499 1499 1500 1502 1503 1514 1519 1512 1510 1512 1516 1522 1530 1532 1529 1535
1517 1519 1520 1521 1519 1518 1516 1514 1512 1509 1511 1509 1508 1507 1507 1506 1505 1505 1506 1509 1510 1512 1508 1505 1506 1505 1503 1502 1503 1501 1500 1500 1499 1501 1501 1511 1520 1513 1511 1512 1514 1519 1527 1535 1535 1534 1538
1513 1515 1517 1518 1517 1515 1514 1512 1509 1508 1508 1507 1507 1506 1504 1505 1504 1504 1507 1510 1510 1510 1509 1505 1505 1504 1503 1504 1504 1502 1501 1499 1501 1503 1506 1516 1519 1512 1513 1518 1520 1521 1528 1532 1534 1538 1540
1509 1511 1514 1514 1514 1513 1512 1510 1508 1507 1506 1506 1505 1504 1504 1504 1506 1503 1506 1509 1509 1510 1516 1507 1505 1504 1503 1503 1505 1503 1501 1501 1501 1508 1508 1517 1517 1516 1519 1521 1522 1527 1519 1522 1528 1537 1551
1503 1506 1509 1509 1510 1510 1509 1508 1506 1504 1505 1505 1503 1503 1503 1504 1503 1504 1507 1508 1509 1511 1543 1506 1503 1504 1502 1504 1505 1504 1503 1501 1506 1505 1507 1524 1522 1522 1523 1525 1519 1523 1518 1519 1522 1532 1544
1496 1501 1504 1506 1507 1507 1508 1507 1505 1504 1504 1503 1502 1502 1502 1504 1504 1504 1506 1507 1510 1527 1543 1506 1502 1503 1505 1504 1505 1505 1504 1504 1507 1510 1514 1521 1520 1522 1524 1521 1520 1517 1519 1522 1526 1534 1562
1491 1495 1499 1501 1504 1505 1506 1505 1503 1502 1501 1501 1501 1501 1502 1502 1503 1504 1505 1508 1529 1541 1504 1508 1505 1505 1507 1509 1511 1512 1516 1520 1526 1526 1526 1525 1527 1524 1523 1523 1520 1523 1531 1556 1553 1562 1562
1488 1490 1494 1497 1500 1502 1503 1503 1500 1501 1501 1501 1499 1498 1500 1501 1502 1504 1506 1510 1540 1511 1503 1499 1501 1505 1511 1509 1515 1518 1520 1530 1526 1527 1534 1537 1541 1529 1524 1527 1529 1528 1534 1561 1554 1565 1570
1484 1485 1490 1493 1496 1498 1500 1499 1498 1499 1500 1498 1497 1498 1499 1501 1501 1504 1507 1530 1524 1508 1504 1501 1503 1509 1512 1510 1514 1520 1529 1532 1531 1529 1535 1544 1539 1526 1528 1529 1529 1532 1542 1538 1549 1558 1569
1478 1481 1484 1489 1492 1495 1496 1496 1497 1498 1498 1497 1498 1498 1500 1499 1501 1505 1508 1517 1508 1505 1504 1501 1509 1508 1517 1513 1515 1521 1530 1533 1532 1529 1529 1534 1542 1528 1530 1531 1534 1536 1542 1550 1562 1591 1571
1474 1476 1480 1484 1488 1491 1493 1494 1496 1496 1497 1498 1499 1499 1499 1499 1502 1505 1516 1511 1506 1505 1505 1507 1510 1507 1510 1513 1514 1524 1534 1535 1532 1531 1528 1528 1540 1540 1535 1549 1550 1548 1552 1556 1559 1571 1600
1470 1472 1475 1479 1483 1488 1490 1492 1494 1495 1497 1499 1498 1499 1498 1500 1505 1504 1508 1503 1505 1506 1507 1508 1508 1509 1511 1514 1522 1530 1534 1533 1533 1533 1532 1532 1540 1554 1554 1551 1548 1548 1556 1561 1578 1567 1569
1465 1468 1472 1475 1479 1484 1487 1489 1491 1493 1496 1497 1496 1497 1499 1501 1508 1508 1504 1506 1508 1508 1509 1510 1512 1511 1511 1517 1529 1531 1533 1534 1533 1533 1534 1534 1542 1559 1559 1554 1550 1552 1554 1561 1566 1577 1590
1460 1463 1467 1471 1476 1479 1483 1486 1489 1491 1495 1496 1496 1499 1499 1501 1499 1500 1506 1509 1511 1510 1510 1511 1513 1512 1515 1521 1524 1532 1534 1534 1533 1532 1533 1534 1545 1546 1560 1556 1559 1561 1557 1554 1558 1580 1582
1456 1458 1462 1467 1472 1476 1480 1483 1486 1489 1493 1495 1493 1490 1491 1500 1499 1500 1502 1508 1512 1514 1513 1514 1519 1519 1517 1527 1527 1533 1533 1534 1533 1535 1534 1538 1556 1550 1557 1558 1560 1567 1567 1562 1562 1565 1574
1450 1452 1458 1463 1468 1473 1476 1480 1484 1488 1490 1492 1490 1488 1490 1492 1494 1499 1504 1510 1512 1514 1518 1522 1526 1525 1521 1532 1531 1533 1534 1537 1540 1536 1535 1539 1555 1555 1564 1562 1561 1574 1572 1565 1567 1569 1566
1442 1446 1452 1459 1463 1469 1472 1477 1481 1486 1488 1489 1489 1488 1489 1493 1496 1502 1506 1508 1512 1514 1521 1521 1523 1526 1532 1535 1532 1534 1536 1538 1539 1540 1541 1543 1551 1555 1562 1565 1559 1573 1582 1579 1578 1578 1577
1437 1440 1447 1452 1458 1465 1469 1473 1479 1483 1485 1487 1487 1488 1487 1499 1497 1503 1505 1508 1513 1515 1521 1526 1525 1528 1536 1535 1536 1538 1539 1541 1542 1543 1542 1547 1551 1555 1562 1566 1588 1585 1581 1581 1579 1580 1577
1432 1435 1442 1449 1455 1460 1465 1471 1476 1481 1482 1486 1487 1488 1488 1501 1502 1509 1508 1514 1517 1519 1524 1527 1529 1532 1534 1537 1542 1547 1553 1548 1548 1552 1550 1549 1555 1556 1559 1570 1582 1577 1580 1580 1579 1581 1577
1425 1430 1437 1446 1452 1456 1462 1468 1475 1478 1481 1486 1488 1488 1491 1495 1512 1512 1512 1516 1520 1525 1530 1531 1534 1535 1536 1539 1546 1557 1567 1555 1560 1557 1557 1558 1557 1563 1568 1573 1579 1581 1580 1580 1578 1584 1578
1417 1424 1432 1441 1448 1453 1459 1466 1473 1476 1481 1486 1487 1487 1491 1499 1510 1512 1514 1518 1520 1524 1531 1534 1535 1537 1538 1546 1556 1565 1568 1558 1571 1569 1571 1571 1568 1571 1584 1577 1582 1581 1580 1580 1584 1592 1577
1411 1418 1427 1437 1444 1450 1457 1465 1471 1475 1482 1484 1485 1488 1490 1501 1512 1513 1515 1517 1519 1520 1528 1531 1536 1538 1540 1551 1559 1562 1567 1567 1574 1575 1577 1577 1577 1580 1576 1583 1590 1581 1580 1582 1582 1579 1576
1406 1414 1424 1433 1440 1447 1455 1463 1469 1476 1480 1482 1486 1491 1492 1496 1514 1516 1518 1520 1520 1520 1523 1529 1532 1533 1537 1548 1555 1559 1566 1570 1574 1575 1579 1578 1583 1578 1577 1581 1581 1580 1581 1580 1579 1577 1573